Location: Ch?enovice
(49.7164°N, 15.2160°E)
Time: 19:52:12
(UTC+00:00)

Cosmos 1346 Rocket - Pass Details

Date: 23 May 2024
Orbit: 508 x 521 km, 81.2° (Epoch: 20 June)

Event Time Altitude Azimuth Distance (km) Brightness Sun altitude
Rises 00:39:53 0° 338° (NNW) 2,662 7.0 -16.0°
Reaches altitude 10° 00:42:16 10° 326° (NW) 1,769 5.8 -15.8°
Maximum altitude 00:45:32 26° 268° (W) 1,047 4.0 -15.6°
Enters shadow 00:46:28 24° 244° (WSW) 1,120 3.9 -15.5°
